Location: Arrakis Observatory
(44.1122°N, 95.7153°W)
Time: 01:12:50
(UTC-05:00)

Iridium 35 - Visible Passes

Search period start: 23 August 2017 00:00
Search period end: 02 September 2017 00:00
Orbit: 776 x 779 km, 86.4° (Epoch: 22 August)

Date Brightness Start Highest point End Pass type
(mag) Time Alt. Az. Time Alt. Az. Time Alt. Az.
23 Aug 6.7 21:20:14 14° E 21:21:43 15° ENE 21:24:41 10° NE visible
23 Aug 5.2 23:00:41 52° SW 23:01:49 67° W 23:07:02 10° N visible
24 Aug 4.9 22:27:02 50° SSE 22:28:17 69° E 22:33:29 10° N visible
25 Aug 7.4 00:07:28 13° W 00:09:33 15° WNW 00:12:37 10° NW visible
25 Aug 5.6 21:53:21 31° ESE 21:54:53 38° E 21:59:41 10° NNE visible
25 Aug 6.8 23:33:48 22° WSW 23:35:41 27° WNW 23:40:06 10° NNW visible
26 Aug 6.3 21:19:38 18° ESE 21:21:37 22° E 21:25:30 10° NNE visible
26 Aug 5.8 23:00:05 33° SW 23:01:58 47° W 23:07:00 10° N visible
27 Aug 6.9 20:46:29 10° E 20:48:27 12° ENE 20:50:25 10° NE visible
27 Aug 5.0 22:26:21 39° S 22:28:22 85° W 22:33:37 10° N visible
28 Aug 7.8 00:08:44 10° W 00:09:55 11° WNW 00:11:07 10° NW visible
28 Aug 5.1 21:52:35 30° SSE 21:54:53 54° E 21:59:58 10° NNE visible
28 Aug 7.3 23:33:01 13° WSW 23:35:58 19° WNW 23:39:41 10° NNW visible
29 Aug 5.9 21:18:46 19° SE 21:21:32 30° E 21:26:03 10° NNE visible
29 Aug 6.5 22:59:13 19° SW 23:02:10 33° W 23:06:52 10° NNW visible
30 Aug 6.5 20:44:58 10° ESE 20:48:18 17° ENE 20:51:39 10° NE visible
30 Aug 5.5 22:25:22 24° SSW 22:28:29 59° W 22:33:39 10° N visible
31 Aug 4.9 21:51:27 21° S 21:54:56 77° E 22:00:10 10° N visible
31 Aug 7.7 23:33:43 10° W 23:36:18 14° WNW 23:38:55 10° NW visible
01 Sep 5.4 21:17:29 15° SSE 21:21:31 43° E 21:26:25 10° NNE visible
01 Sep 7.1 22:58:14 10° SW 23:02:24 24° WNW 23:06:37 10° NNW visible
